Regional Weather Roundup
Issued by NWS

Home | Current Version | Previous Version | Graphics & Text | Print | Product List | Glossary On
Versions: 1 2 3 4 5 6 7 8 9 10 11 12 13 14 15 16 17 18 19 20 21 22 23 24 25 26 27 28 29 30 31 32 33 34 35 36 37 38 39 40 41 42 43 44 45 46 47 48 49 50
000
ASUS44 KMEG 192100
RWRTN
TENNESSEE HOURLY STATE WEATHER ROUNDUP
NATIONAL WEATHER SERVICE MEMPHIS TN
300 PM CST FRI DEC 19 2014

TNZ002-004-019-021-049-052-054-088>092-192200-
WEST TENNESSEE

CITY           SKY/WX    TMP DP  RH WIND       PRES   REMARKS
MEMPHIS INTL   CLOUDY    45  34  65 NE9       30.19F
NWS MEMPHIS      N/A     43 N/A N/A MISG        N/A
JACKSON        PTSUNNY   43  30  60 E6        30.22F
DYERSBURG      PTSUNNY   43  21  42 NE8       30.24S
UNION CITY     CLOUDY    39  30  70 NE7       30.22F WCI  34
PARIS          MOSUNNY   39  27  60 NE7       30.22F WCI  34
LEXINGTON      MOSUNNY   39  28  65 NE5       30.21S
SAVANNAH       CLOUDY    41  28  60 N5        30.22S
$$

TNZ008-025-027-028-033-062-065-066-192200-
NORTH MIDDLE TENNESSEE

CITY           SKY/WX    TMP DP  RH WIND       PRES   REMARKS
NASHVILLE      CLOUDY    41  28  60 N6        30.23F
CLARKSVILLE    PTSUNNY   40  29  64 N6        30.24F
COOKEVILLE     SUNNY     39  28  65 N6        30.19S WCI  35
CROSSVILLE     CLOUDY    40  24  53 N6        30.16S
$$

TNZ061-075-076-078-094-096-097-192200-
SOUTH MIDDLE TENNESSEE

CITY           SKY/WX    TMP DP  RH WIND       PRES   REMARKS
FAYETTEVILLE   CLOUDY    39  28  65 MISG      30.18F
TULLAHOMA      SUNNY     37  28  70 N7        30.19F WCI  32
WINCHESTER     SUNNY     39  28  65 N5        30.19F
SHELBYVILLE    SUNNY     39  28  65 N7        30.21F WCI  34
$$

TNZ017-018-042-046-047-192200-
NORTHEAST TENNESSEE

CITY           SKY/WX    TMP DP  RH WIND       PRES   REMARKS
TRI CITIES     CLOUDY    45  24  43 N3        30.14S
ELIZABETHTON   CLEAR     43  21  42 NW5       30.13F
$$

TNZ012-013-036-069-073-074-192200-
CENTRAL EAST TENNESSEE

CITY           SKY/WX    TMP DP  RH WIND       PRES   REMARKS
KNOXVILLE      CLOUDY    45  26  47 CALM      30.16R
OAK RIDGE      CLOUDY    46  23  40 NE6       30.18R
GATLINBURG     CLEAR     45  27  49 N3        30.15R
$$

TNZ083-085-099-192200-
SOUTHEAST TENNESSEE

CITY           SKY/WX    TMP DP  RH WIND       PRES   REMARKS
CHATTANOOGA    CLOUDY    47  27  45 NE6       30.16S
$$

SKY/WX REPORTED AS FAIR MEANS FEW OR NO CLOUDS BELOW
12 THOUSAND FEET.



USA.gov is the U.S. government's official web portal to all federal, state and local government web resources and services.